OPTUS 10

Last updated on Sat Nov 15 2025 00:02:49 GMT+0000 (Coordinated Universal Time)

1 40146U 14054A 25317.34250564 -.00000147 00000+0 00000+0 0 9997 2 40146 0.1175 331.2120 0002920 251.0958 109.7423 1.00277362 40868
UTC large
Height (km)
Speed (km/s)
/
Latitude / Longitude
Inclination (degrees)
Orbital Period (minutes)
Azimuth
Elevation
Range (km)
Doppler Factor

Next 0 passes for location: London (51.5072 / 0.1276)

Sorry there are no passes over London.